Tracking 20719 objects as of 24-May-2020
HD Live streaming from Space Station
objects crossing your sky now

SKYNET 4E

Track SKYNET 4E now!
SKYNET 4E is classified as:


NORAD ID: 25639
Int'l Code: 1999-009B
Perigee: 35,782.1 km
Apogee: 35,804.5 km
Inclination: 10.9 °
Period: 1,436.1 minutes
Semi major axis: 42164 km
RCS: 5.2477 m2 (large)
Launch date: February 26, 1999
Source: United Kingdom (UK)
Launch site: FRENCH GUIANA (FRGUI)

Used primarily by UK's armed forces, government departments, agencies and other organizations that require secure communications.
aabbcc
Your satellite tracking list
Your tracking list is empty




NASA's NSSDC Master Catalog

Two Line Element Set (TLE):
1 25639U 99009B   20145.07718146 -.00000026 +00000-0 +00000-0 0  9997
2 25639 010.8635 021.2071 0002659 047.6000 199.8562 01.00273234029184
Source of the keplerian elements: AFSPC